Preview of NWS' New Version of Forecast
This preview is not operational and should not be used for support decisions.
Latest weather observations around

Olathe, New Century Aircenter (KIXD)

Using English Units (Switch to International System of Units)
Date/ Time (CST) Wind (mph) Vis. (mi) Weather Sky Cond. Temp (°F) Rel. Humidity Wind Chill (°F) Heat Index (°F) Pressure Precip. (in)
Air Dwpt 6 hour Altimeter (inHg) Sea level (inHg) 1 hr 3 hr 6 hr
Max Min
Jan 16 11:53 E 5 1.25 Fog/Mist OVC002 32 32     100% 27   30.19 30.21      
Jan 16 11:24 E 5 1.25 Fog/Mist OVC002 32 32     100% 27   30.2        
Jan 16 11:02 E 7 0.75 Fog/Mist OVC002 32 32     100% 26   30.2        
Jan 16 10:53 ESE 6 1 Fog/Mist OVC002 32 32     100% 26   30.21 30.23      
Jan 16 10:31 E 6 1.5 Fog/Mist OVC002 32 32     100% 26   30.19        
Jan 16 10:12 E 8 0.75 Fog/Mist OVC002 32 32     100% 25   30.19        
Jan 16 09:53 E 6 1.25 Fog/Mist OVC002 31 31     100% 25   30.2 30.22      
Jan 16 09:24 ENE 7 1.25 Fog/Mist OVC002 31 31     100% 24   30.19        
Jan 16 08:53 ENE 3 0.75 Fog/Mist OVC003 31 31     100% 28   30.21 30.23      
Jan 16 08:22 NNE 6 1.25 Fog/Mist OVC003 31 31     100% 25   30.21        
Jan 16 07:53 N 5 0.75 Fog/Mist OVC003 31 31     100% 26   30.22 30.25      
Jan 16 07:23 N 5 1.25 Fog/Mist OVC002 31 31     100% 26   30.21        
Jan 16 06:53 NNE 5 0.5 Fog VV002 31 31     100% 26   30.2 30.22      
Jan 16 05:53 N 9 0.75 Fog/Mist OVC002 31 31     100% 23   30.18 30.2      
Jan 16 04:53 N 8 0.5 Fog VV002 31 31     100% 23   30.17 30.2      
Jan 16 04:31 N 7 0.5 Fog VV002 31 31     100% 24   30.17        
Jan 16 03:53 N 7 0.25 Fog VV002 32 32     100% 26   30.17 30.19      
Jan 16 02:53 WNW 6 0.25 Fog VV002 32 32     100% 26   30.17 30.2      
Jan 16 01:53 NW 6 0.25 Fog VV002 33 33     100% 28   30.17 30.19      
Jan 16 00:53 WNW 5 0.25 Fog VV002 33 33     100% 29   30.16 30.18      
Jan 16 00:42 W 5 0.25 Fog VV001 33 33     100% 29   30.16        
Jan 15 23:53 W 3 0.25 Fog VV002 33 33     100% 30   30.17 30.19      
Jan 15 22:53 W 7 0.25 Fog VV002 32 32     100% 26   30.17 30.2      
Jan 15 21:53 WSW 7 0.25 Fog VV002 32 32     100% 26   30.16 30.18      
Jan 15 20:53 WSW 6 0.25 Fog VV002 32 32     100% 26   30.15 30.18      
Jan 15 20:25 SW 7 0.5 Fog VV002 32 32     100% 26   30.15        
Jan 15 19:53 SW 11 0.25 Fog VV002 33 33     100% 24   30.14 30.17      
Jan 15 19:03 SSW 5 0.25 Fog VV002 33 33     100% 29   30.15        
Jan 15 18:53 SSW 7 0.75 Fog/Mist VV002 33 33     100% 27   30.14 30.17      
Jan 15 18:19 SW 9 0.75 Fog/Mist VV002 33 33     100% 25   30.14        
Jan 15 17:53 SW 14 1 Fog/Mist VV002 32 32     100% 22   30.14 30.16      
Jan 15 17:50 SW 10 1 Fog/Mist VV002 32 32     100% 24   30.14        
Jan 15 17:00 SSW 13 0.5 Fog OVC002 32 32     100% 22   30.14        
Jan 15 16:53 SSW 15 1.75 Fog/Mist OVC002 32 32     100% 22   30.14 30.16      
Jan 15 16:13 SW 14 1.75 Fog/Mist OVC002 33 32     96% 23   30.14        
Jan 15 16:03 SSW 10 2 Fog/Mist OVC002 33 33     100% 25   30.14        
Jan 15 15:53 SSW 11 1.75 Fog/Mist OVC002 33 33     100% 24   30.14 30.16      
Jan 15 15:50 SSW 13 1.75 Fog/Mist OVC002 34 34     100% 25   30.14        
Jan 15 14:53 SW 9 2.5 Fog/Mist OVC003 33 33     100% 25   30.14 30.16      
Jan 15 13:53 S 9 2.5 Fog/Mist OVC003 33 33     100% 25   30.15 30.17      
Jan 15 12:53 SSW 11 2.5 Fog/Mist OVC003 32 32     100% 23   30.18 30.2      
Jan 15 12:50 S 13 2 Fog/Mist OVC002 32 32     100% 22   30.18        
Jan 15 12:35 SSW 9 1.75 Fog/Mist OVC002 32 32     100% 24   30.19        
Jan 15 11:53 S 13 1.5 Fog/Mist OVC002 32 32     100% 22   30.22 30.24      
Jan 15 11:29 S 13 1.75 Fog/Mist OVC003 32 32     100% 22   30.24        
Jan 15 10:53 SSW 11 2.5 Fog/Mist OVC003 32 32     100% 23   30.25 30.28      
Jan 15 10:00   2 Clear   31 31     100%     30.25        
Jan 15 09:53   1.75 Clear   31 31     100%     30.25 30.27      
Jan 15 08:53 S 11 1 Fog/Mist OVC002 31 31     100% 22   30.24 30.27      
Jan 15 07:53 S 11 1.5 Fog/Mist OVC002 31 31     100% 22   30.24 30.27      
Jan 15 07:45 S 13 1.5 Fog/Mist OVC002 31 31     100% 21   30.24        
Jan 15 07:24 S 9 2 Fog/Mist OVC002 31 31     100% 23   30.24        
Jan 15 07:04 SSW 10 1.5 Fog/Mist OVC002 31 31     100% 22   30.24        
Jan 15 06:53 SSW 11 2 Fog/Mist OVC002 31 31     100% 22   30.24 30.27      
Jan 15 06:48   2.5 Fog/Mist OVC002 30 30     100%     30.24        
Jan 15 06:26 S 10 1.5 Fog/Mist OVC002 31 31     100% 22   30.23        
Jan 15 05:53 SSW 11 0.5 Fog VV002 31 31     100% 22   30.23 30.26      
Jan 15 04:53 S 10 0.5 Fog VV002 31 31     100% 22   30.24 30.27      
Jan 15 03:53 S 6 0.5 Fog VV002 31 31     100% 25   30.25 30.28      
Jan 15 02:53 SSW 6 0.75 Fog/Mist VV002 31 31     100% 25   30.29 30.32      
Jan 15 02:37 S 7 0.75 Fog/Mist VV002 31 31     100% 24   30.29        
Jan 15 02:18 SSW 8 1.75 Fog/Mist OVC003 31 31     100% 23   30.29        
Jan 15 01:53 SW 8 3 Fog/Mist OVC003 30 30     100% 22   30.3 30.33      
Jan 15 01:49 SW 9 3 Fog/Mist OVC002 30 30     100% 22   30.3        
Jan 15 01:33 SW 7 2.5 Fog/Mist OVC002 30 30     100% 23   30.3        
Jan 15 01:21 SW 10 3 Fog/Mist OVC002 30 30     100% 21   30.3        
Jan 15 01:14 SW 9 2.5 Fog/Mist OVC002 30 30     100% 22   30.3        
Jan 15 00:53 SW 8 1 Fog/Mist OVC002 30 30     100% 22   30.29 30.32      
Jan 15 00:39 SSW 8 1 Fog/Mist VV002 30 30     100% 22   30.29        
Jan 15 00:28 SW 8 0.75 Fog/Mist VV002 30 30     100% 22   30.29        
Jan 14 23:53 SW 13 1.5 Fog/Mist OVC002 30 30     100% 20   30.31 30.34      
Jan 14 23:15 SW 9 1.75 Fog/Mist OVC002 30 30     100% 22   30.31        
Jan 14 22:53 SW 7 2 Fog/Mist OVC002 30 30     100% 23   30.32 30.35      
Jan 14 22:39 SW 8 2 Fog/Mist OVC002 30 30     100% 22   30.32        
Jan 14 22:28 SW 9 1.75 Fog/Mist OVC002 30 30     100% 22   30.31        
Jan 14 21:53 SW 7 2.5 Fog/Mist OVC002 30 30     100% 23   30.32 30.35      
Jan 14 21:51 SW 8 2.5 Fog/Mist OVC002 30 30     100% 23   30.32        
Jan 14 21:09 SW 8 1.75 Fog/Mist OVC002 29 29     100% 21   30.31        
Jan 14 20:53 SW 8 2.5 Fog/Mist OVC002 29 29     100% 21   30.32 30.35      
Jan 14 20:43 SW 10 2.5 Fog/Mist OVC002 29 29     100% 20   30.32        
Jan 14 20:22 SW 9 1.5 Fog/Mist OVC002 29 29     100% 20   30.32        
Jan 14 20:09 WSW 8 2.5 Fog/Mist OVC002 29 29     100% 21   30.32        
Jan 14 19:53 SW 7 3 Fog/Mist OVC002 29 29     100% 22   30.32 30.35      
Jan 14 18:53 SW 10 5 Fog/Mist OVC003 29 29     100% 20   30.32 30.35      
Jan 14 17:53 SW 8 4 Fog/Mist OVC003 29 29     100% 21   30.32 30.35      
Jan 14 17:40 SW 13 4 Fog/Mist OVC003 29 28     96% 19   30.31        
Jan 14 17:22 SSW 11 2 Fog/Mist OVC003 29 28     96% 19   30.31        
Jan 14 16:53 SSW 13 4 Fog/Mist OVC003 29 28     96% 19   30.32 30.35      
Jan 14 16:27 SW 10 5 Fog/Mist OVC004 29 28     96% 20   30.33        
Jan 14 16:06 SW 10 6 Fog/Mist OVC005 29 28     96% 20   30.32        
Jan 14 15:53 SW 9 7 Cloudy OVC004 29 28     96% 20   30.32 30.35      
Jan 14 14:53 WSW 9 6 Fog/Mist OVC005 28 28     100% 19   30.33 30.37      
Jan 14 14:42 SSW 13 7 Cloudy OVC005 28 27     96% 17   30.33        
Jan 14 13:53 SW 11 7 Cloudy OVC004 28 27     96% 18   30.34 30.37      
Jan 14 12:53 SW 14 7 Cloudy OVC003 27 27     100% 16   30.37 30.4      
Jan 14 11:53 SW 10 4 Fog/Mist OVC003 27 26     96% 17   30.4 30.43      
Jan 14 11:07 SW 11 3 Fog/Mist OVC002 27 26     96% 17   30.42        
Jan 14 10:53 SSW 9 1.5 Fog/Mist OVC002 27 26     96% 18   30.43 30.46      
Jan 14 10:42 SSW 9 1.5 Fog/Mist OVC003 27 27     100% 18   30.43        
Jan 14 10:09 SSW 10 2 Fog/Mist OVC002 26 26     100% 16   30.43        
Jan 14 09:53 SSW 10 1.5 Fog/Mist OVC002 26 26     100% 16   30.42 30.46      
Jan 14 08:53 SSW 10 1.25 Fog/Mist OVC002 26 26     100% 16   30.42 30.45      
Jan 14 08:32 WSW 7 1.5 Fog/Mist OVC002 26 26     100% 18   30.42        
Jan 14 08:25 SW 9 2 Fog/Mist OVC002 25 25     100% 16   30.41        
Jan 14 08:00 SW 7 1.5 Fog/Mist OVC002 26 26     100% 18   30.41        
Jan 14 07:53 WSW 9 0.75 Fog/Mist VV002 26 26     100% 17   30.41 30.45      
Jan 14 07:46 WSW 9 0.5 Fog VV002 26 26     100% 17   30.42        
Jan 14 07:28 WSW 8 1 Fog/Mist VV002 26 26     100% 18   30.41        
Jan 14 07:03 SW 8 0.75 Fog/Mist VV002 26 26     100% 18   30.42        
Jan 14 06:53 SW 7 1 Fog/Mist VV002 26 26     100% 18   30.41 30.45      
Jan 14 06:20 WSW 8 1.25 Fog/Mist OVC002 26 26     100% 18   30.41        
Jan 14 05:53 SW 7 2.5 Fog/Mist OVC002 26 26     100% 18   30.41 30.44      
Jan 14 04:53 WSW 5 4 Fog/Mist OVC003 27 27     100% 21   30.42 30.45      
Jan 14 03:53 WSW 7 5 Fog/Mist OVC004 27 27     100% 19   30.42 30.45      
Jan 14 02:53 WSW 7 5 Fog/Mist OVC004 27 27     100% 19   30.44 30.47      
Jan 14 01:53 WSW 7 6 Fog/Mist OVC005 28 27     96% 21   30.44 30.47      
Jan 14 00:53 WSW 5 6 Fog/Mist OVC006 28 27     96% 23   30.43 30.46      
Jan 13 23:53 W 6 6 Fog/Mist OVC005 28 27     96% 22   30.44 30.47 0   0
Jan 13 22:53 W 5 7 Light Snow OVC007 29 27     92% 24   30.45 30.48 0    
Jan 13 22:25 WNW 5 8 Cloudy OVC008 29 26     89% 24   30.45        
Jan 13 21:53 Calm 9 Cloudy OVC010 29 26     89%     30.45 30.48      
Jan 13 20:53 Calm 10 Cloudy OVC011 29 26     89%     30.45 30.48      
Jan 13 19:53 NNW 6 9 Cloudy OVC010 29 26     89% 23   30.45 30.48      
Jan 13 18:53 N 5 7 Cloudy OVC012 29 27     92% 24   30.44 30.47      
Jan 13 17:53 N 6 6 Fog/Mist OVC011 29 28     96% 23   30.43 30.46      
Jan 13 17:22 NNW 7 5 Fog/Mist OVC010 29 28     96% 22   30.43        
Jan 13 16:53 N 7 5 Fog/Mist OVC008 29 27     92% 22   30.43 30.45      
Jan 13 16:39 NNW 7 5 Fog/Mist OVC008 29 27     92% 22   30.42        
Jan 13 16:13 N 5 7 Cloudy OVC011 29 27     92% 24   30.42        
Jan 13 15:53 N 6 6 Fog/Mist OVC008 29 27     92% 23   30.42 30.45      
Jan 13 14:53 N 6 7 Cloudy OVC009 29 27     92% 23   30.42 30.45      
Jan 13 13:53 N 10 6 Clear   29 27     92% 20   30.41 30.44      
Jan 13 13:15 NNW 10 5 Fog/Mist OVC008 29 27     92% 20   30.41        
Jan 13 12:53 NNW 7 7 Cloudy OVC010 29 27     92% 22   30.42 30.45      
Jan 13 12:37 N 10 8 Cloudy OVC010 29 27     92% 20   30.42        
May 14 19:53 WNW 7 10 Clear   74 58     57%   74 29.82 29.79      
May 14 16:53 SSW 7 10 Mostly Clear FEW041 FEW060 81 69     67%   84 29.83 29.79      
May 14 11:53 SSW 15 10 Clear CLR 83 68     61%   86 29.94 29.9      
May 14 10:53 S 8 10 Clear CLR 84 68     59%   87 29.93 29.89      
May 13 16:53 S 15 10 Mostly Clear FEW050 90 69     50%   95 29.88 29.84      
May 12 15:53 S 16 10 Cloudy OVC055 82 68     63%   85 29.88 29.84      
May 12 14:53 S 17 10 Mostly Cloudy BKN049 83 67     59%   86 29.88 29.84      
May 12 03:53 SSW 11 10 Mostly Clear FEW100 FEW120 74 63     69%   74 29.85 29.81      
May 11 11:53 S 23 10 Partly Cloudy and Windy SCT036 80 63     56%   81 29.77 29.74      
Jun 11 14:53 S 17 10 Clear CLR 90 68     49%   94 29.83 29.79      
Jun 11 04:53 S 11 10 Clear CLR 72 64     76%   72 29.84 29.8      
Jun 10 18:53 S 22 10 Clear and Windy CLR 84 68     59%   87 29.75 29.71      
Jun 10 10:53   10 Clear CLR 79 65     62%   80 29.83 29.79      
Jun 09 04:53 S 3 10 Clear CLR 58 53     84%     29.9 29.87      
Jun 08 13:53 SSE 9 10 Clear CLR 80 50     35%   79 30.02 29.98      
Jun 08 08:53 S 6 10 Clear CLR 69 56     63%     30.08 30.05      
Jun 07 21:53 ESE 3 10 Clear CLR 67 51     57%     30.06 30.03      
Jun 07 10:53 E 10 10 Clear CLR 75 45     34%   74 30.13 30.1      
Jun 06 10:53 NE 9 10 Clear CLR 76 56     50%   76 30.02 29.99      
Jun 06 06:53 ENE 7 10 Clear CLR 67 57     71%     29.99 29.95      
Jun 05 21:53 NE 5 10 Clear   75 53     46%   74 29.88 29.84